Flag for U.S.A. Weather past 2 weeks in Victoria, Texas, U.S.A.

Now
91 °F

Sunny.


Feels Like: 100 °F
Forecast: 75 / 93 °F
Wind: N/A

Location: Victoria Regional Airport

Current Time: Jul 24, 2014 at 3:59:45 PM

Latest Report: Jul 24, 2014 at 2:51 PM


Visibility: 10 mi

Pressure: 29.98 "Hg

Humidity: 56%

Dew point: 73 °F

Location of VictoriaLocation

Historic Weather in Victoria — Graph

°F

Victoria temperature yesterday

Maximum temperature yesterday: 100 °F (at 3:51 PM)
Minimum temperature yesterday: 76 °F (at 6:51 AM)
Average temperature yesterday: 86 °F

Past Weeks' High & Low Weather Summary

 TemperatureHumidityPressure
High100 °F (Jul 23, 3:51 PM)100% (Jul 23, 7:51 AM)30.16 "Hg (Jul 23, 7:51 AM)
Low71 °F (Jul 12, 6:51 AM)38% (Jul 23, 3:51 PM)29.80 "Hg (Jul 17, 5:51 PM)
Average83 °F76%29.99 "Hg
* Reported Jul 9 2:51 PM — Jul 24 2:51 PM, Victoria, Weather by CustomWeather, © 2014

Note: Actual official high and low records may vary slightly from our data, if they occured in-between our weather recording intervals... More about our weather records

Advertising

Victoria weather history for previous 24 hours

 ConditionsComfort  
Time TempWeatherWind HumidityBarometerVisibility
2:51 PM
Jul 24
91 °FSunny.N/A56%29.98 "Hg10 mi
2:00 PM86 °FPartly sunny.17 mph67%30.01 "Hg10 mi
12:51 PM92 °FThundershowers. Scattered clouds.8 mph56%30.00 "Hg10 mi
11:51 AM90 °FScattered clouds.9 mph61%30.02 "Hg10 mi
10:51 AM87 °FBroken clouds.5 mph69%30.04 "Hg10 mi
9:51 AM84 °FScattered clouds.7 mph80%30.03 "Hg10 mi
8:51 AM83 °FHaze.No wind85%30.03 "Hg6 mi
7:51 AM80 °FFog.No wind90%30.01 "Hg4 mi
6:51 AM78 °FFog.No wind93%29.99 "Hg4 mi
5:51 AM79 °FFog.No wind90%29.97 "Hg6 mi
4:51 AM79 °FPassing clouds.3 mph90%29.97 "Hg7 mi
3:51 AM80 °FClear.5 mph87%29.96 "Hg7 mi
2:51 AM79 °FClear.6 mph88%29.98 "Hg8 mi
1:51 AM80 °FClear.7 mph87%29.99 "Hg9 mi
12:51 AM81 °FClear.7 mph85%30.01 "Hg10 mi
11:51 PM
Jul 23
80 °FClear.5 mph85%30.01 "Hg10 mi
10:51 PM82 °FClear.6 mph77%30.01 "Hg10 mi
9:51 PM84 °FClear.6 mph70%30.00 "Hg10 mi
8:51 PM87 °FSunny.8 mph65%29.96 "Hg10 mi
7:51 PM91 °FSunny.10 mph60%29.94 "Hg10 mi
6:51 PM94 °FSunny.10 mph52%29.92 "Hg10 mi
5:51 PM95 °FSunny.14 mph52%29.93 "Hg10 mi
4:51 PM92 °FPartly sunny.16 mph58%29.95 "Hg10 mi
3:51 PM100 °FScattered clouds.5 mph38%29.96 "Hg10 mi
Weather by CustomWeather, © 2014

See weather overviewHow to use our weather pages